Regional Weather Roundup
Issued by NWS

Home | Current Version | Previous Version | Graphics & Text | Print | Product List | Glossary On
Versions: 1 2 3 4 5 6 7 8 9 10 11 12 13 14 15 16 17 18 19 20 21 22 23 24 25 26 27 28 29 30 31 32 33 34 35 36 37 38 39 40 41 42 43 44 45 46 47 48 49 50
000
ASUS43 KMKX 241859
RWRWI

WISCONSIN REGIONAL WEATHER ROUNDUP
NATIONAL WEATHER SERVICE MILWAUKEE/SULLIVAN WI
200 PM CDT THU JUL 24 2014

NOTE: "FAIR" INDICATES FEW OR NO CLOUDS BELOW 12,000 FEET WITH NO
SIGNIFICANT WEATHER AND/OR OBSTRUCTIONS TO VISIBILITY.

WIZ001-002-006>008-014>016-023>028-242000-
NORTHWEST WISCONSIN

CITY           SKY/WX    TMP DP  RH WIND       PRES   REMARKS
SUPERIOR ARPT  PTSUNNY   72  60  66 E6        30.05F
ASHLAND        PTSUNNY   77  56  48 VRB3      30.07F
HAYWARD        PTSUNNY   75  50  41 VRB5      30.09F
SIREN          PTSUNNY   79  51  38 SW7       30.07F
RICE LAKE      PTSUNNY   76  49  38 S5        30.10F
LADYSMITH      PTSUNNY   74  52  46 SW7       30.12F
EAU CLAIRE     NOT AVBL
MENOMONIE      MOCLDY    77  53  44 SE7       30.08F
NEW RICHMOND   PTSUNNY   76  54  46 S10       30.07F
OSCEOLA        MOSUNNY   78  54  42 SE9       30.08F
$$

WIZ003>005-009-010-017-018-242000-
NORTH CENTRAL WISCONSIN

CITY           SKY/WX    TMP DP  RH WIND       PRES   REMARKS
WOODRUFF       MOSUNNY   77  52  42 SW3       30.11F
RHINELANDER    PTSUNNY   73  48  41 VRB3      30.12F
EAGLE RIVER    MOSUNNY   71  45  39 CALM      30.11F
LAND O LAKES   MOSUNNY   73  46  38 SW5       30.12F
PHILLIPS       PTSUNNY   75  51  43 S6        30.11F
TOMAHAWK       PTSUNNY   73  52  48 CALM      30.12F
MEDFORD        PTSUNNY   72  51  47 CALM      30.12F
MERRILL        SUNNY     72  50  46 CALM      30.11F
$$

WIZ029-030-035-036-043>047-242000-
CENTRAL WISCONSIN

CITY           SKY/WX    TMP DP  RH WIND       PRES   REMARKS
WAUSAU         MOSUNNY   75  49  39 CALM      30.09F
MOSINEE        MOSUNNY   75  48  38 S9        30.15S
MARSHFIELD     SUNNY     75  51  43 W3        30.11F
STEVENS POINT  SUNNY     73  47  39 SW5       30.12F
WAUPACA        MOSUNNY   78  48  35 S3        30.12F
WAUTOMA        NOT AVBL
WISC RAPIDS    MOSUNNY   78  49  35 W10       30.11F
CAMP DOUGLAS   NOT AVBL
$$

WIZ011>013-019>022-031-037>040-048>050-242000-
NORTHEAST WISCONSIN

CITY           SKY/WX    TMP DP  RH WIND       PRES   REMARKS
ANTIGO         MOSUNNY   70  50  50 S3        30.13F
STURGEON BAY   SUNNY     72  46  40 W3        30.13F
GREEN BAY      MOSUNNY   75  50  41 VRB5      30.12F
MANITOWOC      NOT AVBL
APPLETON       PTSUNNY   70  48  46 VRB6      30.13F
CLINTONVILLE   PTSUNNY   73  50  43 S6        30.11F
OSHKOSH        PTSUNNY   72  52  49 E8        30.12F
$$

WIZ032>034-041-042-053>061-242000-
SOUTHWEST WISCONSIN

CITY           SKY/WX    TMP DP  RH WIND       PRES   REMARKS
LA CROSSE      SUNNY     81  53  37 SW9       30.08F HX  80
SPARTA         MOSUNNY   79  48  33 W5        30.12F
VIROQUA        MOCLDY    77  55  46 S5        30.14F
BOSCOBEL       PTSUNNY   79  53  40 VRB3      30.11F
PRAIRIE DU CHI MOSUNNY   77  55  47 CALM      30.10F
PLATTEVILLE    FAIR      75  55  50 SW7       30.15F
$$

WIZ056-057-062-063-064-067-068-242000-
SOUTH CENTRAL WISCONSIN

CITY           SKY/WX    TMP DP  RH WIND       PRES   REMARKS
BARABOO/DELLS  MOSUNNY   78  49  36 W7        30.12F
LONE ROCK      NOT AVBL
WATERTOWN      CLOUDY    72  52  48 NE3       30.14F
MADISON        PTSUNNY   75  51  43 CALM      30.13F
MIDDLETON      MOCLDY    78  49  36 W7        30.13F
MONROE         PTSUNNY   73  54  49 W3        30.15S
JANESVILLE     MOSUNNY   75  48  38 E6        30.13F
$$

WIZ051-052-058>065-066-070>072-242000-
SOUTHEAST WISCONSIN

CITY           SKY/WX    TMP DP  RH WIND       PRES   REMARKS
MILWAUKEE      MOSUNNY   69  48  47 E8        30.16F
WAUKESHA       MOSUNNY   72  46  40 SE5       30.16F
MILWAUKEE/TIMM NOT AVBL
RACINE         SUNNY     68  48  48 E7        30.17F
BURLINGTON     SUNNY     70  49  46 CALM      30.15F
KENOSHA        SUNNY     71  47  42 NE7       30.16F
FOND DU LAC    PTSUNNY   75  51  43 CALM      30.13F
SHEBOYGAN      SUNNY     71  48  43 MISG      30.14F
WEST BEND      MOSUNNY   72  46  40 E7        30.15F
JUNEAU         PTSUNNY   72  43  36 CALM      30.15F
$$

LSZ147-162-242000-
LAKE SUPERIOR

STATION/POSITION TIME  TEMP    WIND        PRES    WAVE
                       AIR SEA DIR/SP/G            HT/PER
                 (UTC) (F)     (DEG/KT/KT) (MB)    (FT/S)
$$

LMZ867-665-643>646-242000-
LAKE MICHIGAN

STATION/POSITION TIME  TEMP    WIND        PRES    WAVE
                       AIR SEA DIR/SP/G            HT/PER
                 (UTC) (F)     (DEG/KT/KT) (MB)    (FT/S)
$$

TC  - TEMPERATURE IN CELSIUS
VSB - VISIBILITY IN STATUTE MILES
WCI - WIND CHILL INDEX
HX  - HEAT INDEX



USA.gov is the U.S. government's official web portal to all federal, state and local government web resources and services.